,,,PA_Meas_PMT16A,,PR_Meas_QMR101_102,,RH_Meas_QMH101,,SR_Meas_QMS101,,TA_Meas_QMH101,,GenWind,,GenWind,
date,time,status,PA,status,PR,status,RH,status,SR,status,TA,status,DirAvg,status,SpdAvg,
2012-08-07, 07:03:04,VALID,1006.05,VALID,0,VALID,79.3404,VALID,186.411,VALID,28.2614,VALID,47,VALID,1.1,
2012-08-07, 07:04:04,VALID,1006.07,VALID,0,VALID,79.6379,VALID,190.079,VALID,28.2029,VALID,348,VALID,0.866797,
2012-08-07, 07:05:04,VALID,1006.07,VALID,0,VALID,80.5305,VALID,193.584,VALID,28.2202,VALID,34,VALID,0.714063,
2012-08-07, 07:06:04,VALID,1006.09,VALID,0,VALID,79.5082,VALID,198.148,VALID,28.2982,VALID,22,VALID,0.892969,
2012-08-07, 07:07:04,VALID,1006.11,VALID,0,VALID,79.8439,VALID,202.713,VALID,28.3372,VALID,12,VALID,1.24141,
2012-08-07, 07:08:04,VALID,1006.16,VALID,0,VALID,79.6989,VALID,184.129,VALID,28.3372,VALID,42,VALID,0.965234,
2012-08-07, 07:09:04,VALID,1006.19,VALID,0,VALID,79.3327,VALID,177.119,VALID,28.3762,VALID,41,VALID,1.4168,
2012-08-07, 07:10:04,VALID,1006.26,VALID,0,VALID,79.6455,VALID,193.258,VALID,28.3567,VALID,11,VALID,1.43086,
2012-08-07, 07:11:04,VALID,1006.23,VALID,0,VALID,78.7148,VALID,182.906,VALID,28.3393,VALID,13,VALID,1.99297,
2012-08-07, 07:12:04,VALID,1006.27,VALID,0,VALID,79.7905,VALID,205.892,VALID,28.3003,VALID,21,VALID,1.57734,
2012-08-07, 07:13:04,VALID,1006.26,VALID,0,VALID,78.9894,VALID,196.681,VALID,28.2419,VALID,62,VALID,1.4125,
2012-08-07, 07:14:04,VALID,1006.28,VALID,0,VALID,79.1954,VALID,219.422,VALID,28.2397,VALID,4,VALID,1.36484,
2012-08-07, 07:15:04,VALID,1006.3,VALID,0,VALID,79.943,VALID,222.275,VALID,28.3198,VALID,40,VALID,0.563281,
2012-08-07, 07:16:04,VALID,1006.27,VALID,0,VALID,79.3632,VALID,188.041,VALID,28.4173,VALID,10,VALID,1.44453,
2012-08-07, 07:17:04,VALID,1006.27,VALID,0,VALID,78.5775,VALID,212.575,VALID,28.3567,VALID,27,VALID,1.72734,
2012-08-07, 07:18:04,VALID,1006.3,VALID,0,VALID,78.8521,VALID,248.684,VALID,28.3588,VALID,20,VALID,1.04102,
2012-08-07, 07:19:04,VALID,1006.29,VALID,0,VALID,78.0587,VALID,251.7,VALID,28.3978,VALID,8,VALID,1.31289,
2012-08-07, 07:20:04,VALID,1006.31,VALID,0,VALID,77.8527,VALID,254.308,VALID,28.3783,VALID,27,VALID,1.39336,
2012-08-07, 07:21:04,VALID,1006.3,VALID,0,VALID,78.135,VALID,256.427,VALID,28.4194,VALID,19,VALID,2.21289,
2012-08-07, 07:22:04,VALID,1006.3,VALID,0,VALID,78.5851,VALID,258.628,VALID,28.3978,VALID,20,VALID,1.05977,
2012-08-07, 07:23:04,VALID,1006.3,VALID,0,VALID,77.4179,VALID,256.427,VALID,28.4953,VALID,3,VALID,1.53711,
2012-08-07, 07:24:04,VALID,1006.31,VALID,0,VALID,77.4484,VALID,262.377,VALID,28.4953,VALID,31,VALID,1.70352,
2012-08-07, 07:25:04,VALID,1006.27,VALID,0,VALID,78.9284,VALID,264.985,VALID,28.4974,VALID,61,VALID,0.944141,
2012-08-07, 07:26:04,VALID,1006.25,VALID,0,VALID,78.3257,VALID,268.246,VALID,28.5342,VALID,9,VALID,0.926562,
2012-08-07, 07:27:04,VALID,1006.28,VALID,0,VALID,78.3486,VALID,271.425,VALID,28.5537,VALID,23,VALID,1.11406,
2012-08-07, 07:28:04,VALID,1006.27,VALID,0,VALID,77.8985,VALID,265.964,VALID,28.7097,VALID,10,VALID,0.970312,
2012-08-07, 07:29:04,VALID,1006.26,VALID,0,VALID,76.182,VALID,274.848,VALID,28.7682,VALID,6,VALID,1.79297,
2012-08-07, 07:30:04,VALID,1006.29,VALID,0,VALID,76.983,VALID,279.82,VALID,28.6317,VALID,13,VALID,2.74766,
2012-08-07, 07:31:04,VALID,1006.34,VALID,0,VALID,77.2882,VALID,283.814,VALID,28.5342,VALID,11,VALID,1.67734,
2012-08-07, 07:32:04,VALID,1006.36,VALID,0,VALID,77.9824,VALID,287.726,VALID,28.5342,VALID,29,VALID,1.28125,
2012-08-07, 07:33:04,VALID,1006.41,VALID,0,VALID,77.1585,VALID,290.742,VALID,28.6317,VALID,42,VALID,1.11289,
2012-08-07, 07:34:04,VALID,1006.43,VALID,0,VALID,76.6855,VALID,294.655,VALID,28.6729,VALID,5,VALID,2.59961,
2012-08-07, 07:35:04,VALID,1006.44,VALID,0,VALID,78.1884,VALID,298.649,VALID,28.6339,VALID,7,VALID,0.791797,
2012-08-07, 07:36:04,VALID,1006.43,VALID,0,VALID,76.3193,VALID,302.561,VALID,28.6729,VALID,12,VALID,1.60938,
2012-08-07, 07:37:04,VALID,1006.44,VALID,0,VALID,77.7917,VALID,305.006,VALID,28.7292,VALID,77,VALID,1.54922,
2012-08-07, 07:38:04,VALID,1006.45,VALID,0,VALID,76.655,VALID,296.04,VALID,28.8851,VALID,20,VALID,1.35781,
2012-08-07, 07:39:04,VALID,1006.43,VALID,0,VALID,76.4643,VALID,288.623,VALID,28.9631,VALID,17,VALID,0.589063,
2012-08-07, 07:40:04,VALID,1006.44,VALID,0,VALID,76.7847,VALID,301.501,VALID,29.0996,VALID,358,VALID,0.506641,
2012-08-07, 07:41:04,VALID,1006.48,VALID,0,VALID,76.5863,VALID,318.863,VALID,29.2556,VALID,30,VALID,0.488281,
2012-08-07, 07:42:04,VALID,1006.48,VALID,0,VALID,76.0294,VALID,330.437,VALID,29.3553,VALID,41,VALID,0.803516,
2012-08-07, 07:43:04,VALID,1006.51,VALID,0,VALID,74.7096,VALID,334.757,VALID,29.2751,VALID,3,VALID,1.2418,
2012-08-07, 07:44:04,VALID,1006.51,VALID,0,VALID,76.3117,VALID,339.974,VALID,29.1971,VALID,77,VALID,0.573438,
2012-08-07, 07:45:04,VALID,1006.54,VALID,0,VALID,76.0599,VALID,350.325,VALID,29.2945,VALID,7,VALID,1.11641,
2012-08-07, 07:46:04,VALID,1006.52,VALID,0,VALID,76.1362,VALID,314.461,VALID,29.3553,VALID,359,VALID,1.37578,
2012-08-07, 07:47:04,VALID,1006.51,VALID,0,VALID,75.3428,VALID,192.769,VALID,29.2166,VALID,351,VALID,1.4668,
2012-08-07, 07:48:04,VALID,1006.52,VALID,0,VALID,76.2964,VALID,231.648,VALID,29.0411,VALID,345,VALID,1.4543,
2012-08-07, 07:49:04,VALID,1006.57,VALID,0,VALID,76.7389,VALID,366.79,VALID,28.9046,VALID,85,VALID,1.7293,
2012-08-07, 07:50:04,VALID,1006.54,VALID,0,VALID,76.9983,VALID,372.903,VALID,28.8267,VALID,21,VALID,1.43516,
2012-08-07, 07:51:04,VALID,1006.56,VALID,0,VALID,74.9309,VALID,379.75,VALID,28.8267,VALID,14,VALID,1.89023,
2012-08-07, 07:52:04,VALID,1006.57,VALID,0,VALID,75.6861,VALID,379.995,VALID,28.8873,VALID,10,VALID,1.05938,
2012-08-07, 07:53:04,VALID,1006.58,VALID,0,VALID,75.8768,VALID,381.706,VALID,28.9653,VALID,8,VALID,1.63828,
2012-08-07, 07:54:04,VALID,1006.58,VALID,0,VALID,74.8622,VALID,383.988,VALID,28.9436,VALID,12,VALID,2.54805,
2012-08-07, 07:55:04,VALID,1006.55,VALID,0,VALID,75.0453,VALID,387.249,VALID,28.9241,VALID,14,VALID,1.74063,
2012-08-07, 07:56:04,VALID,1006.53,VALID,0,VALID,76.8686,VALID,389.042,VALID,29.0021,VALID,69,VALID,0.636328,
2012-08-07, 07:57:04,VALID,1006.57,VALID,0,VALID,75.7624,VALID,391.976,VALID,29.1798,VALID,38,VALID,1.09063,
2012-08-07, 07:58:04,VALID,1006.55,VALID,0,VALID,74.5265,VALID,394.911,VALID,29.2945,VALID,360,VALID,1.7293,
2012-08-07, 07:59:04,VALID,1006.58,VALID,0,VALID,76.5711,VALID,412.517,VALID,29.3553,VALID,346,VALID,1.03828,
2012-08-07, 08:00:04,VALID,1006.56,VALID,0,VALID,73.2983,VALID,353.423,VALID,29.3748,VALID,351,VALID,1.25156,
2012-08-07, 08:01:04,VALID,1006.57,VALID,0,VALID,74.29,VALID,285.118,VALID,29.431,VALID,17,VALID,0.733984,
2012-08-07, 08:02:04,VALID,1006.59,VALID,0,VALID,74.1451,VALID,313.809,VALID,29.5113,VALID,1,VALID,0.773047,
2012-08-07, 08:03:04,VALID,1006.6,VALID,0,VALID,73.2296,VALID,286.096,VALID,29.5308,VALID,14,VALID,0.889453,
2012-08-07, 08:04:04,VALID,1006.64,VALID,0,VALID,72.9626,VALID,308.511,VALID,29.5113,VALID,347,VALID,1.05391,
2012-08-07, 08:05:04,VALID,1006.66,VALID,0,VALID,73.4051,VALID,350.57,VALID,29.4333,VALID,85,VALID,1.08086,
2012-08-07, 08:06:04,VALID,1006.68,VALID,0,VALID,74.4121,VALID,369.969,VALID,29.4528,VALID,82,VALID,0.480859,
2012-08-07, 08:07:04,VALID,1006.66,VALID,0,VALID,72.8482,VALID,387.412,VALID,29.4528,VALID,41,VALID,1.94766,
2012-08-07, 08:08:04,VALID,1006.67,VALID,0,VALID,72.2226,VALID,399.475,VALID,29.4528,VALID,20,VALID,1.57773,
2012-08-07, 08:09:04,VALID,1006.64,VALID,0,VALID,72.7185,VALID,384.885,VALID,29.392,VALID,68,VALID,1.79805,
2012-08-07, 08:10:04,VALID,1006.64,VALID,0,VALID,73.9162,VALID,328.562,VALID,29.3943,VALID,83,VALID,1.33945,
2012-08-07, 08:11:04,VALID,1006.64,VALID,0,VALID,73.3517,VALID,268.898,VALID,29.3748,VALID,48,VALID,1.45703,
2012-08-07, 08:12:04,VALID,1006.61,VALID,0,VALID,73.0618,VALID,225.209,VALID,29.2773,VALID,58,VALID,1.69062,
2012-08-07, 08:13:04,VALID,1006.62,VALID,0,VALID,74.7554,VALID,272.81,VALID,29.2188,VALID,87,VALID,1.03281,
2012-08-07, 08:14:04,VALID,1006.62,VALID,0,VALID,73.9391,VALID,307.859,VALID,29.1798,VALID,16,VALID,1.20352,
2012-08-07, 08:15:04,VALID,1006.58,VALID,0,VALID,74.3282,VALID,366.79,VALID,29.221,VALID,24,VALID,1.42305,
2012-08-07, 08:16:04,VALID,1006.64,VALID,0,VALID,73.5424,VALID,422.868,VALID,29.2188,VALID,8,VALID,1.64297,
2012-08-07, 08:17:04,VALID,1006.62,VALID,0,VALID,75.0453,VALID,404.855,VALID,29.1798,VALID,86,VALID,1.81406,
2012-08-07, 08:18:04,VALID,1006.65,VALID,0,VALID,74.1146,VALID,477.968,VALID,29.2751,VALID,29,VALID,1.23125,
2012-08-07, 08:19:04,VALID,1006.63,VALID,0,VALID,73.7942,VALID,457.673,VALID,29.3748,VALID,343,VALID,1.51914,
2012-08-07, 08:20:04,VALID,1006.68,VALID,0,VALID,73.7713,VALID,444.468,VALID,29.5503,VALID,56,VALID,0.995313,
2012-08-07, 08:21:04,VALID,1006.69,VALID,0,VALID,73.283,VALID,451.804,VALID,29.509,VALID,79,VALID,1.33633,
2012-08-07, 08:22:04,VALID,1006.7,VALID,0,VALID,73.55,VALID,504.622,VALID,29.431,VALID,83,VALID,1.90859,
2012-08-07, 08:23:04,VALID,1006.65,VALID,0,VALID,73.0542,VALID,479.191,VALID,29.47,VALID,23,VALID,1.66914,
2012-08-07, 08:24:04,VALID,1006.67,VALID,0,VALID,73.1762,VALID,490.195,VALID,29.548,VALID,28,VALID,1.06289,
2012-08-07, 08:25:04,VALID,1006.66,VALID,0,VALID,73.8323,VALID,493.455,VALID,29.6088,VALID,360,VALID,0.792969,
2012-08-07, 08:26:04,VALID,1006.6,VALID,0,VALID,71.948,VALID,494.678,VALID,29.626,VALID,18,VALID,1.23828,
2012-08-07, 08:27:04,VALID,1006.6,VALID,0,VALID,73.1762,VALID,493.373,VALID,29.6673,VALID,93,VALID,2.29922,
2012-08-07, 08:28:04,VALID,1006.64,VALID,0,VALID,75.0377,VALID,489.38,VALID,29.7235,VALID,35,VALID,0.728516,
2012-08-07, 08:29:04,VALID,1006.59,VALID,0,VALID,72.9168,VALID,476.175,VALID,29.9793,VALID,18,VALID,0.797656,
2012-08-07, 08:30:04,VALID,1006.61,VALID,0,VALID,69.4533,VALID,482.696,VALID,30.1158,VALID,18,VALID,1.14961,
2012-08-07, 08:31:04,VALID,1006.6,VALID,0,VALID,70.4756,VALID,456.368,VALID,30.0378,VALID,15,VALID,1.9918,
2012-08-07, 08:32:04,VALID,1006.58,VALID,0,VALID,71.6428,VALID,458.977,VALID,29.9185,VALID,33,VALID,1.75586,
2012-08-07, 08:33:05,VALID,1006.55,VALID,0,VALID,71.1698,VALID,482.044,VALID,29.8428,VALID,96,VALID,1.98711,
2012-08-07, 08:34:05,VALID,1006.54,VALID,0,VALID,71.3224,VALID,481.473,VALID,29.8038,VALID,96,VALID,2.26914,
2012-08-07, 08:35:05,VALID,1006.51,VALID,0,VALID,71.7267,VALID,490.195,VALID,29.7843,VALID,73,VALID,1.76211,
2012-08-07, 08:36:05,VALID,1006.52,VALID,0,VALID,70.8647,VALID,490.032,VALID,29.7843,VALID,96,VALID,1.63281,
2012-08-07, 08:37:05,VALID,1006.49,VALID,0,VALID,70.9562,VALID,501.035,VALID,29.7648,VALID,62,VALID,0.53125,
2012-08-07, 08:38:05,VALID,1006.51,VALID,0,VALID,70.4069,VALID,494.352,VALID,29.8233,VALID,21,VALID,1.40508,
2012-08-07, 08:39:05,VALID,1006.5,VALID,0,VALID,69.0337,VALID,497.53,VALID,29.8233,VALID,24,VALID,1.82734,
2012-08-07, 08:40:05,VALID,1006.44,VALID,0,VALID,69.8805,VALID,519.375,VALID,29.8818,VALID,243,VALID,0.4,
2012-08-07, 08:41:05,VALID,1006.44,VALID,0,VALID,71.1393,VALID,530.134,VALID,30.0183,VALID,353,VALID,1.09219,
2012-08-07, 08:42:05,VALID,1006.48,VALID,0,VALID,71.9022,VALID,516.522,VALID,30.2328,VALID,44,VALID,0.955859,
2012-08-07, 08:43:05,VALID,1006.45,VALID,0,VALID,68.3471,VALID,535.106,VALID,30.3109,VALID,95,VALID,1.61445,
2012-08-07, 08:44:05,VALID,1006.44,VALID,0,VALID,70.201,VALID,530.46,VALID,30.1353,VALID,55,VALID,1.07109,
2012-08-07, 08:45:05,VALID,1006.46,VALID,0,VALID,69.5144,VALID,542.279,VALID,30.2351,VALID,83,VALID,0.874609,
2012-08-07, 08:46:05,VALID,1006.48,VALID,0,VALID,69.1482,VALID,548.31,VALID,30.211,VALID,67,VALID,1.29727,
2012-08-07, 08:47:05,VALID,1006.45,VALID,0,VALID,68.9193,VALID,549.044,VALID,30.0378,VALID,80,VALID,2.34219,
2012-08-07, 08:48:05,VALID,1006.42,VALID,0,VALID,69.7203,VALID,547.414,VALID,30.0768,VALID,71,VALID,1.26563,
2012-08-07, 08:49:05,VALID,1006.42,VALID,0,VALID,67.4164,VALID,537.47,VALID,30.0768,VALID,109,VALID,1.58672,
2012-08-07, 08:50:05,VALID,1006.41,VALID,0,VALID,69.0719,VALID,546.191,VALID,30.1158,VALID,72,VALID,0.359766,
2012-08-07, 08:51:05,VALID,1006.4,VALID,0,VALID,69.7737,VALID,545.458,VALID,30.3694,VALID,13,VALID,0.215234,
2012-08-07, 08:52:05,VALID,1006.38,VALID,0,VALID,67.7063,VALID,550.756,VALID,30.5472,VALID,85,VALID,1.60977,
2012-08-07, 08:53:05,VALID,1006.38,VALID,0,VALID,66.6612,VALID,556.217,VALID,30.4279,VALID,3,VALID,2.62344,
2012-08-07, 08:54:05,VALID,1006.38,VALID,0,VALID,67.0807,VALID,564.531,VALID,30.4692,VALID,347,VALID,1.18398,
2012-08-07, 08:55:05,VALID,1006.37,VALID,0,VALID,67.3478,VALID,573.986,VALID,30.3694,VALID,97,VALID,1.98672,
2012-08-07, 08:56:05,VALID,1006.41,VALID,0,VALID,67.9581,VALID,581.322,VALID,30.3499,VALID,99,VALID,1.73008,
2012-08-07, 08:57:05,VALID,1006.29,VALID,0,VALID,68.5531,VALID,580.343,VALID,30.2351,VALID,104,VALID,2.0293,
2012-08-07, 08:58:05,VALID,1006.31,VALID,0,VALID,69.1558,VALID,581.892,VALID,30.1548,VALID,95,VALID,1.06875,
2012-08-07, 08:59:05,VALID,1006.34,VALID,0,VALID,67.2944,VALID,580.588,VALID,30.3132,VALID,21,VALID,0.472656,
2012-08-07, 09:00:05,VALID,1006.33,VALID,0,VALID,67.3935,VALID,588.576,VALID,30.5644,VALID,64,VALID,1.19883,
2012-08-07, 09:01:05,VALID,1006.34,VALID,0,VALID,67.0273,VALID,596.564,VALID,30.6424,VALID,93,VALID,1.12773,
2012-08-07, 09:02:05,VALID,1006.38,VALID,0,VALID,65.0515,VALID,577.898,VALID,30.7423,VALID,77,VALID,1.99688,
2012-08-07, 09:03:05,VALID,1006.37,VALID,0,VALID,66.0508,VALID,152.829,VALID,30.662,VALID,27,VALID,1.83867,
2012-08-07, 09:04:05,VALID,1006.38,VALID,0,VALID,65.8525,VALID,616.778,VALID,30.5839,VALID,11,VALID,2.2582,
2012-08-07, 09:05:05,VALID,1006.34,VALID,0,VALID,65.8296,VALID,616.044,VALID,30.5082,VALID,347,VALID,2.18281,
2012-08-07, 09:06:05,VALID,1006.39,VALID,0,VALID,67.2028,VALID,619.468,VALID,30.3694,VALID,356,VALID,2.33633,
2012-08-07, 09:07:05,VALID,1006.4,VALID,0,VALID,68.164,VALID,621.342,VALID,30.3304,VALID,57,VALID,1.23047,
2012-08-07, 09:08:05,VALID,1006.37,VALID,0,VALID,68.3471,VALID,622.647,VALID,30.3304,VALID,87,VALID,2.75586,
2012-08-07, 09:09:05,VALID,1006.41,VALID,0,VALID,66.9892,VALID,627.7,VALID,30.3499,VALID,3,VALID,0.478906,
2012-08-07, 09:10:05,VALID,1006.37,VALID,0,VALID,65.883,VALID,631.368,VALID,30.4887,VALID,78,VALID,0.964063,
2012-08-07, 09:11:05,VALID,1006.39,VALID,0,VALID,66.8595,VALID,633.324,VALID,30.5277,VALID,74,VALID,2.12344,
2012-08-07, 09:12:05,VALID,1006.39,VALID,0,VALID,67.4393,VALID,635.688,VALID,30.6815,VALID,91,VALID,1.01875,
2012-08-07, 09:13:05,VALID,1006.36,VALID,0,VALID,64.7616,VALID,631.694,VALID,30.701,VALID,84,VALID,1.21133,
2012-08-07, 09:14:05,VALID,1006.36,VALID,0,VALID,65.1964,VALID,645.958,VALID,30.7228,VALID,72,VALID,0.537109,
2012-08-07, 09:15:05,VALID,1006.38,VALID,0,VALID,64.9904,VALID,659.978,VALID,30.8008,VALID,100,VALID,2.36484,
2012-08-07, 09:16:05,VALID,1006.38,VALID,0,VALID,65.7228,VALID,525.406,VALID,30.6253,VALID,107,VALID,1.48477,
2012-08-07, 09:17:05,VALID,1006.38,VALID,0,VALID,67.2944,VALID,269.713,VALID,30.7033,VALID,3,VALID,0.558203,
2012-08-07, 09:18:05,VALID,1006.37,VALID,0,VALID,66.2263,VALID,688.017,VALID,30.7985,VALID,40,VALID,1.33516,
2012-08-07, 09:19:05,VALID,1006.39,VALID,0,VALID,66.0966,VALID,680.192,VALID,30.8594,VALID,96,VALID,1.11328,
2012-08-07, 09:20:05,VALID,1006.34,VALID,0,VALID,64.4259,VALID,680.192,VALID,30.9132,VALID,39,VALID,1.12578,
2012-08-07, 09:21:05,VALID,1006.35,VALID,0,VALID,64.2047,VALID,684.838,VALID,31.1301,VALID,37,VALID,0.898438,
2012-08-07, 09:22:05,VALID,1006.31,VALID,0,VALID,63.5028,VALID,694.374,VALID,31.2082,VALID,22,VALID,1.03711,
2012-08-07, 09:23:05,VALID,1006.34,VALID,0,VALID,63.1748,VALID,706.601,VALID,31.2448,VALID,165,VALID,0.175781,
2012-08-07, 09:24:05,VALID,1006.34,VALID,0,VALID,62.9154,VALID,727.386,VALID,31.4618,VALID,116,VALID,0.416406,
2012-08-07, 09:25:05,VALID,1006.32,VALID,0,VALID,64.0368,VALID,748.007,VALID,31.6569,VALID,299,VALID,0.606641,
2012-08-07, 09:26:05,VALID,1006.36,VALID,0,VALID,62.1601,VALID,774.009,VALID,31.9496,VALID,8,VALID,1.49609,
2012-08-07, 09:27:05,VALID,1006.38,VALID,0,VALID,59.3985,VALID,796.587,VALID,31.9667,VALID,83,VALID,1.975,
2012-08-07, 09:28:05,VALID,1006.34,VALID,0,VALID,60.5047,VALID,693.152,VALID,31.7959,VALID,190,VALID,0.675,
2012-08-07, 09:29:05,VALID,1006.36,VALID,0,VALID,62.9917,VALID,823.811,VALID,31.8911,VALID,34,VALID,1.51523,
2012-08-07, 09:30:05,VALID,1006.38,VALID,0,VALID,60.3521,VALID,810.036,VALID,32.1253,VALID,43,VALID,1.50586,
2012-08-07, 09:31:05,VALID,1006.36,VALID,0,VALID,61.3133,VALID,820.795,VALID,32.0472,VALID,83,VALID,1.52539,
2012-08-07, 09:32:05,VALID,1006.31,VALID,0,VALID,60.4665,VALID,825.522,VALID,32.2643,VALID,113,VALID,1.88906,
2012-08-07, 09:33:05,VALID,1006.38,VALID,0,VALID,61.6261,VALID,828.62,VALID,31.813,VALID,92,VALID,1.00391,
2012-08-07, 09:34:05,VALID,1006.34,VALID,0,VALID,62.4653,VALID,853.154,VALID,31.774,VALID,121,VALID,1.81094,
2012-08-07, 09:35:05,VALID,1006.32,VALID,0,VALID,62.6636,VALID,223.171,VALID,31.5423,VALID,102,VALID,2.73203,
2012-08-07, 09:36:05,VALID,1006.3,VALID,0,VALID,62.9154,VALID,491.662,VALID,31.1301,VALID,25,VALID,1.16094,
2012-08-07, 09:37:05,VALID,1006.31,VALID,0,VALID,63.6783,VALID,553.609,VALID,30.9546,VALID,123,VALID,1.57344,
2012-08-07, 09:38:05,VALID,1006.29,VALID,0,VALID,64.6395,VALID,813.867,VALID,30.896,VALID,96,VALID,0.935547,
2012-08-07, 09:39:05,VALID,1006.27,VALID,0,VALID,64.5022,VALID,853.561,VALID,31.0154,VALID,89,VALID,1.18203,
2012-08-07, 09:40:05,VALID,1006.27,VALID,0,VALID,62.9535,VALID,872.227,VALID,31.1301,VALID,108,VALID,1.55234,
2012-08-07, 09:41:05,VALID,1006.29,VALID,0,VALID,65.5702,VALID,523.124,VALID,30.9936,VALID,113,VALID,0.632422,
2012-08-07, 09:42:05,VALID,1006.23,VALID,0,VALID,64.937,VALID,305.414,VALID,31.2082,VALID,40,VALID,0.519141,
2012-08-07, 09:43:05,VALID,1006.23,VALID,0,VALID,64.4412,VALID,848.019,VALID,31.4618,VALID,352,VALID,0.708594,
2012-08-07, 09:44:05,VALID,1006.2,VALID,0,VALID,64.0673,VALID,245.668,VALID,31.7569,VALID,327,VALID,1.325,
2012-08-07, 09:45:05,VALID,1006.24,VALID,0,VALID,64.5098,VALID,244.445,VALID,31.774,VALID,34,VALID,0.937109,
2012-08-07, 09:46:05,VALID,1006.26,VALID,0,VALID,63.9453,VALID,237.028,VALID,31.6764,VALID,24,VALID,1.21953,
2012-08-07, 09:47:05,VALID,1006.27,VALID,0,VALID,62.4958,VALID,238.577,VALID,31.1887,VALID,360,VALID,1.72383,
2012-08-07, 09:48:05,VALID,1006.28,VALID,0,VALID,65.1583,VALID,277.212,VALID,30.9546,VALID,342,VALID,0.858594,
2012-08-07, 09:49:05,VALID,1006.31,VALID,0,VALID,66.4552,VALID,908.091,VALID,30.8203,VALID,75,VALID,1.88086,
2012-08-07, 09:50:05,VALID,1006.33,VALID,0,VALID,63.8919,VALID,913.959,VALID,30.9741,VALID,346,VALID,1.04297,
2012-08-07, 09:51:05,VALID,1006.31,VALID,0,VALID,65.1583,VALID,409.582,VALID,31.1887,VALID,349,VALID,0.902344,
2012-08-07, 09:52:05,VALID,1006.34,VALID,0,VALID,64.5556,VALID,258.465,VALID,31.2667,VALID,55,VALID,0.7125,
2012-08-07, 09:53:05,VALID,1006.35,VALID,0,VALID,63.5638,VALID,261.073,VALID,31.2105,VALID,84,VALID,1.41172,
2012-08-07, 09:54:05,VALID,1006.36,VALID,0,VALID,63.9376,VALID,267.186,VALID,30.9741,VALID,93,VALID,2.00977,
2012-08-07, 09:55:05,VALID,1006.32,VALID,0,VALID,63.5028,VALID,286.259,VALID,30.779,VALID,105,VALID,1.50195,
2012-08-07, 09:56:05,VALID,1006.36,VALID,0,VALID,64.6319,VALID,290.09,VALID,30.5839,VALID,76,VALID,1.51289,
2012-08-07, 09:57:05,VALID,1006.32,VALID,0,VALID,66.4704,VALID,295.551,VALID,30.5254,VALID,13,VALID,0.695703,
2012-08-07, 09:58:05,VALID,1006.28,VALID,0,VALID,64.8531,VALID,348.206,VALID,30.6058,VALID,99,VALID,0.617188,
2012-08-07, 09:59:05,VALID,1006.29,VALID,0,VALID,66.3331,VALID,1033.45,VALID,30.5644,VALID,69,VALID,0.925391,
2012-08-07, 10:00:05,VALID,1006.28,VALID,0,VALID,67.0807,VALID,1021.63,VALID,30.779,VALID,41,VALID,0.408203,
2012-08-07, 10:01:05,VALID,1006.3,VALID,0,VALID,66.5315,VALID,431.101,VALID,30.9155,VALID,91,VALID,0.662109,
2012-08-07, 10:02:05,VALID,1006.3,VALID,0,VALID,64.6014,VALID,283.896,VALID,31.1887,VALID,21,VALID,1.09883,
2012-08-07, 10:03:05,VALID,1006.32,VALID,0,VALID,62.6331,VALID,275.5,VALID,31.3057,VALID,351,VALID,1.5207,
2012-08-07, 10:04:05,VALID,1006.36,VALID,0,VALID,63.6325,VALID,255.367,VALID,31.1887,VALID,20,VALID,1.14258,
2012-08-07, 10:05:05,VALID,1006.35,VALID,0,VALID,65.5931,VALID,245.668,VALID,31.0521,VALID,26,VALID,0.538672,
2012-08-07, 10:06:05,VALID,1006.35,VALID,0,VALID,65.9288,VALID,247.787,VALID,31.0326,VALID,11,VALID,0.875391,
2012-08-07, 10:07:05,VALID,1006.32,VALID,0,VALID,65.8754,VALID,827.397,VALID,31.0716,VALID,358,VALID,0.894531,
2012-08-07, 10:08:05,VALID,1006.3,VALID,0,VALID,65.1506,VALID,1030.52,VALID,31.1106,VALID,353,VALID,1.93711,
2012-08-07, 10:09:05,VALID,1006.27,VALID,0,VALID,64.5708,VALID,886.165,VALID,31.1301,VALID,347,VALID,1.76445,
2012-08-07, 10:10:05,VALID,1006.23,VALID,0,VALID,62.6484,VALID,965.392,VALID,31.1496,VALID,351,VALID,2.55391,
2012-08-07, 10:11:05,VALID,1006.14,VALID,0,VALID,64.4946,VALID,280.635,VALID,31.0716,VALID,40,VALID,1.2957,
2012-08-07, 10:12:05,VALID,1006.11,VALID,0,VALID,64.4412,VALID,211.19,VALID,31.0131,VALID,5,VALID,1.02461,
2012-08-07, 10:13:05,VALID,1006.09,VALID,0,VALID,65.8372,VALID,247.217,VALID,30.9546,VALID,83,VALID,0.701172,
2012-08-07, 10:14:05,VALID,1006.06,VALID,0,VALID,66.2721,VALID,218.525,VALID,30.9741,VALID,19,VALID,1.78711,
2012-08-07, 10:15:05,VALID,1006.03,VALID,0,VALID,64.9523,VALID,219.504,VALID,30.818,VALID,76,VALID,1.85273,
2012-08-07, 10:16:05,VALID,1006.06,VALID,0,VALID,67.035,VALID,221.786,VALID,30.7205,VALID,15,VALID,0.697656,
2012-08-07, 10:17:05,VALID,1005.99,VALID,0,VALID,65.1354,VALID,213.879,VALID,30.6815,VALID,287,VALID,2.80352,
2012-08-07, 10:18:05,VALID,1005.99,VALID,0,VALID,66.0432,VALID,207.848,VALID,30.6011,VALID,279,VALID,0.878906,
2012-08-07, 10:19:05,VALID,1006.04,VALID,0,VALID,66.3026,VALID,191.627,VALID,30.5254,VALID,8,VALID,2.27539,
2012-08-07, 10:20:05,VALID,1006.04,VALID,0,VALID,66.4399,VALID,168.723,VALID,30.4474,VALID,64,VALID,0.843359,
2012-08-07, 10:21:05,VALID,1006.03,VALID,0,VALID,66.4247,VALID,144.434,VALID,30.3694,VALID,66,VALID,0.985156,
2012-08-07, 10:22:05,VALID,1006.05,VALID,0,VALID,67.5232,VALID,138.076,VALID,30.2523,VALID,44,VALID,0.978906,
2012-08-07, 10:23:05,VALID,1006.05,VALID,0,VALID,67.8131,VALID,138.239,VALID,30.1743,VALID,86,VALID,1.16836,
2012-08-07, 10:24:05,VALID,1006.06,VALID,0,VALID,67.775,VALID,146.716,VALID,30.0986,VALID,46,VALID,0.635938,
2012-08-07, 10:25:05,VALID,1006.01,VALID,0,VALID,67.363,VALID,162.936,VALID,30.0573,VALID,59,VALID,0.769141,
2012-08-07, 10:26:05,VALID,1005.97,VALID,0,VALID,66.3407,VALID,185.922,VALID,30.016,VALID,352,VALID,1.35586,
2012-08-07, 10:27:05,VALID,1005.96,VALID,0,VALID,67.7979,VALID,211.842,VALID,30.0378,VALID,344,VALID,1.52461,
2012-08-07, 10:28:05,VALID,1005.96,VALID,0,VALID,66.9892,VALID,238.495,VALID,30.016,VALID,357,VALID,0.457812,
2012-08-07, 10:29:05,VALID,1005.97,VALID,0,VALID,67.1341,VALID,234.583,VALID,30.0768,VALID,108,VALID,0.999219,
2012-08-07, 10:30:05,VALID,1005.98,VALID,0,VALID,70.0331,VALID,213.309,VALID,29.8818,VALID,198,VALID,1.99297,
2012-08-07, 10:31:05,VALID,1006.02,VALID,0,VALID,70.9867,VALID,193.991,VALID,29.4895,VALID,158,VALID,2.41211,
2012-08-07, 10:32:05,VALID,1006.06,VALID,0,VALID,72.7109,VALID,163.914,VALID,29.0801,VALID,128,VALID,2.86055,
2012-08-07, 10:33:05,VALID,1006.09,VALID,0,VALID,72.7109,VALID,147.613,VALID,28.7509,VALID,135,VALID,3.23008,
2012-08-07, 10:34:05,VALID,1006.13,VALID,0,VALID,74.0612,VALID,137.343,VALID,28.4194,VALID,139,VALID,2.60664,
2012-08-07, 10:35:05,VALID,1006.09,VALID,0,VALID,74.8851,VALID,127.154,VALID,28.2029,VALID,118,VALID,2.88008,
2012-08-07, 10:36:05,VALID,1006.11,VALID,0,VALID,75.976,VALID,122.671,VALID,28.0491,VALID,167,VALID,2.2793,
2012-08-07, 10:37:05,VALID,1006.08,VALID,0,VALID,77.0669,VALID,126.583,VALID,27.8152,VALID,143,VALID,3.47578,
2012-08-07, 10:38:05,VALID,1006.07,VALID,0,VALID,77.5171,VALID,135.549,VALID,27.6593,VALID,140,VALID,3.38359,